owner,sensor,date,latitude,longitude,sea_surface_height_above_sea_level,qcFlag 
TCOON,ioos:station:TCOON:518:1,2019-10-01T00:24:00Z,29.5150,-94.5133,1.781,11111222 
TCOON,ioos:station:TCOON:518:1,2019-10-01T01:24:00Z,29.5150,-94.5133,1.857,11111222 
TCOON,ioos:station:TCOON:518:1,2019-10-01T02:24:00Z,29.5150,-94.5133,1.885,11111222 
TCOON,ioos:station:TCOON:518:1,2019-10-01T03:24:00Z,29.5150,-94.5133,1.89,11111222 
TCOON,ioos:station:TCOON:518:1,2019-10-01T04:24:00Z,29.5150,-94.5133,1.876,11111222 
TCOON,ioos:station:TCOON:518:1,2019-10-01T05:24:00Z,29.5150,-94.5133,1.848,11111222 
TCOON,ioos:station:TCOON:518:1,2019-10-01T06:30:00Z,29.5150,-94.5133,1.833,11111222 
TCOON,ioos:station:TCOON:518:1,2019-10-01T07:24:00Z,29.5150,-94.5133,1.843,11111222 
TCOON,ioos:station:TCOON:518:1,2019-10-01T08:24:00Z,29.5150,-94.5133,1.812,11111222 
TCOON,ioos:station:TCOON:518:1,2019-10-01T09:24:00Z,29.5150,-94.5133,1.816,11111222 
TCOON,ioos:station:TCOON:518:1,2019-10-01T10:24:00Z,29.5150,-94.5133,1.869,11111222 
TCOON,ioos:station:TCOON:518:1,2019-10-01T11:24:00Z,29.5150,-94.5133,1.908,11111222 
TCOON,ioos:station:TCOON:518:1,2019-10-01T12:24:00Z,29.5150,-94.5133,1.956,11111222 
TCOON,ioos:station:TCOON:518:1,2019-10-01T13:24:00Z,29.5150,-94.5133,1.967,11111222 
TCOON,ioos:station:TCOON:518:1,2019-10-01T14:24:00Z,29.5150,-94.5133,1.938,11111222 
TCOON,ioos:station:TCOON:518:1,2019-10-01T15:24:00Z,29.5150,-94.5133,1.883,11111222 
TCOON,ioos:station:TCOON:518:1,2019-10-01T16:24:00Z,29.5150,-94.5133,1.8,11111222 
TCOON,ioos:station:TCOON:518:1,2019-10-01T17:24:00Z,29.5150,-94.5133,1.712,11111222 
TCOON,ioos:station:TCOON:518:1,2019-10-01T18:24:00Z,29.5150,-94.5133,1.654,11111222 
TCOON,ioos:station:TCOON:518:1,2019-10-01T19:24:00Z,29.5150,-94.5133,1.616,11111222 
TCOON,ioos:station:TCOON:518:1,2019-10-01T20:24:00Z,29.5150,-94.5133,1.59,11111222 
TCOON,ioos:station:TCOON:518:1,2019-10-01T21:24:00Z,29.5150,-94.5133,1.572,11111222 
TCOON,ioos:station:TCOON:518:1,2019-10-01T22:24:00Z,29.5150,-94.5133,1.584,11111222 
TCOON,ioos:station:TCOON:518:1,2019-10-01T23:24:00Z,29.5150,-94.5133,1.641,11111222 
TCOON,ioos:station:TCOON:518:1,2019-10-02T00:24:00Z,29.5150,-94.5133,1.769,11111222 
TCOON,ioos:station:TCOON:518:1,2019-10-02T01:24:00Z,29.5150,-94.5133,1.84,11111222 
TCOON,ioos:station:TCOON:518:1,2019-10-02T02:24:00Z,29.5150,-94.5133,1.898,11111222 
TCOON,ioos:station:TCOON:518:1,2019-10-02T03:24:00Z,29.5150,-94.5133,1.937,11111222 
TCOON,ioos:station:TCOON:518:1,2019-10-02T04:42:00Z,29.5150,-94.5133,1.937,11111222 
TCOON,ioos:station:TCOON:518:1,2019-10-02T05:24:00Z,29.5150,-94.5133,1.948,11111222 
TCOON,ioos:station:TCOON:518:1,2019-10-02T06:24:00Z,29.5150,-94.5133,1.954,11111222 
TCOON,ioos:station:TCOON:518:1,2019-10-02T07:24:00Z,29.5150,-94.5133,1.946,11111222 
TCOON,ioos:station:TCOON:518:1,2019-10-02T08:24:00Z,29.5150,-94.5133,1.94,11111222 
TCOON,ioos:station:TCOON:518:1,2019-10-02T09:24:00Z,29.5150,-94.5133,1.93,11111222 
TCOON,ioos:station:TCOON:518:1,2019-10-02T10:24:00Z,29.5150,-94.5133,1.906,11111222 
TCOON,ioos:station:TCOON:518:1,2019-10-02T11:24:00Z,29.5150,-94.5133,1.885,11111222 
TCOON,ioos:station:TCOON:518:1,2019-10-02T12:24:00Z,29.5150,-94.5133,1.895,11111222 
TCOON,ioos:station:TCOON:518:1,2019-10-02T13:24:00Z,29.5150,-94.5133,1.866,11111222 
TCOON,ioos:station:TCOON:518:1,2019-10-02T14:24:00Z,29.5150,-94.5133,1.825,11111222 
TCOON,ioos:station:TCOON:518:1,2019-10-02T15:24:00Z,29.5150,-94.5133,1.773,11111222 
TCOON,ioos:station:TCOON:518:1,2019-10-02T16:24:00Z,29.5150,-94.5133,1.686,11111222 
TCOON,ioos:station:TCOON:518:1,2019-10-02T17:24:00Z,29.5150,-94.5133,1.589,11111222 
TCOON,ioos:station:TCOON:518:1,2019-10-02T18:24:00Z,29.5150,-94.5133,1.529,11111222 
TCOON,ioos:station:TCOON:518:1,2019-10-02T19:24:00Z,29.5150,-94.5133,1.467,11111222 
TCOON,ioos:station:TCOON:518:1,2019-10-02T20:24:00Z,29.5150,-94.5133,1.44,11111222 
TCOON,ioos:station:TCOON:518:1,2019-10-02T21:24:00Z,29.5150,-94.5133,1.427,11111222 
TCOON,ioos:station:TCOON:518:1,2019-10-02T22:24:00Z,29.5150,-94.5133,1.426,11111222 
TCOON,ioos:station:TCOON:518:1,2019-10-02T23:24:00Z,29.5150,-94.5133,1.505,11111222 
TCOON,ioos:station:TCOON:518:1,2019-10-03T00:24:00Z,29.5150,-94.5133,1.603,11111222 
TCOON,ioos:station:TCOON:518:1,2019-10-03T01:24:00Z,29.5150,-94.5133,1.695,11111222 
TCOON,ioos:station:TCOON:518:1,2019-10-03T02:24:00Z,29.5150,-94.5133,1.76,11111222 
TCOON,ioos:station:TCOON:518:1,2019-10-03T03:24:00Z,29.5150,-94.5133,1.804,11111222 
TCOON,ioos:station:TCOON:518:1,2019-10-03T04:24:00Z,29.5150,-94.5133,1.824,11111222 
TCOON,ioos:station:TCOON:518:1,2019-10-03T05:24:00Z,29.5150,-94.5133,1.878,11111222 
TCOON,ioos:station:TCOON:518:1,2019-10-03T06:24:00Z,29.5150,-94.5133,1.909,11111222 
TCOON,ioos:station:TCOON:518:1,2019-10-03T07:24:00Z,29.5150,-94.5133,1.93,11111222 
TCOON,ioos:station:TCOON:518:1,2019-10-03T08:24:00Z,29.5150,-94.5133,1.947,11111222 
TCOON,ioos:station:TCOON:518:1,2019-10-03T09:24:00Z,29.5150,-94.5133,1.946,11111222 
TCOON,ioos:station:TCOON:518:1,2019-10-03T10:24:00Z,29.5150,-94.5133,1.91,11111222 
TCOON,ioos:station:TCOON:518:1,2019-10-03T11:24:00Z,29.5150,-94.5133,1.875,11111222 
TCOON,ioos:station:TCOON:518:1,2019-10-03T12:24:00Z,29.5150,-94.5133,1.874,11111222 
TCOON,ioos:station:TCOON:518:1,2019-10-03T13:24:00Z,29.5150,-94.5133,1.853,11111222 
TCOON,ioos:station:TCOON:518:1,2019-10-03T14:24:00Z,29.5150,-94.5133,1.812,11111222 
TCOON,ioos:station:TCOON:518:1,2019-10-03T15:24:00Z,29.5150,-94.5133,1.77,11111222 
TCOON,ioos:station:TCOON:518:1,2019-10-03T16:24:00Z,29.5150,-94.5133,1.713,11111222 
TCOON,ioos:station:TCOON:518:1,2019-10-03T17:24:00Z,29.5150,-94.5133,1.645,11111222 
TCOON,ioos:station:TCOON:518:1,2019-10-03T18:24:00Z,29.5150,-94.5133,1.55,11111222 
TCOON,ioos:station:TCOON:518:1,2019-10-03T19:24:00Z,29.5150,-94.5133,1.534,11111222 
TCOON,ioos:station:TCOON:518:1,2019-10-03T20:24:00Z,29.5150,-94.5133,1.476,11111222 
TCOON,ioos:station:TCOON:518:1,2019-10-03T21:24:00Z,29.5150,-94.5133,1.437,11111222 
TCOON,ioos:station:TCOON:518:1,2019-10-03T22:24:00Z,29.5150,-94.5133,1.428,11111222 
TCOON,ioos:station:TCOON:518:1,2019-10-03T23:24:00Z,29.5150,-94.5133,1.409,11111222 
TCOON,ioos:station:TCOON:518:1,2019-10-04T00:24:00Z,29.5150,-94.5133,1.477,11111222 
TCOON,ioos:station:TCOON:518:1,2019-10-04T01:24:00Z,29.5150,-94.5133,1.606,11111222 
TCOON,ioos:station:TCOON:518:1,2019-10-04T02:24:00Z,29.5150,-94.5133,1.721,11111222 
TCOON,ioos:station:TCOON:518:1,2019-10-04T03:24:00Z,29.5150,-94.5133,1.774,11111222 
TCOON,ioos:station:TCOON:518:1,2019-10-04T04:24:00Z,29.5150,-94.5133,1.837,11111222 
TCOON,ioos:station:TCOON:518:1,2019-10-04T05:24:00Z,29.5150,-94.5133,1.884,11111222 
TCOON,ioos:station:TCOON:518:1,2019-10-04T06:24:00Z,29.5150,-94.5133,1.924,11111222 
TCOON,ioos:station:TCOON:518:1,2019-10-04T07:24:00Z,29.5150,-94.5133,1.952,11111222 
TCOON,ioos:station:TCOON:518:1,2019-10-04T08:24:00Z,29.5150,-94.5133,1.965,11111222 
TCOON,ioos:station:TCOON:518:1,2019-10-04T09:24:00Z,29.5150,-94.5133,1.942,11111222 
TCOON,ioos:station:TCOON:518:1,2019-10-04T10:24:00Z,29.5150,-94.5133,1.885,11111222 
TCOON,ioos:station:TCOON:518:1,2019-10-04T11:24:00Z,29.5150,-94.5133,1.905,11111222 
TCOON,ioos:station:TCOON:518:1,2019-10-04T12:30:00Z,29.5150,-94.5133,1.866,11111222 
TCOON,ioos:station:TCOON:518:1,2019-10-04T13:30:00Z,29.5150,-94.5133,1.84,11111222 
TCOON,ioos:station:TCOON:518:1,2019-10-04T14:30:00Z,29.5150,-94.5133,1.796,11111222 
TCOON,ioos:station:TCOON:518:1,2019-10-04T15:30:00Z,29.5150,-94.5133,1.788,11111222 
TCOON,ioos:station:TCOON:518:1,2019-10-04T16:30:00Z,29.5150,-94.5133,1.758,11111222 
TCOON,ioos:station:TCOON:518:1,2019-10-04T17:42:00Z,29.5150,-94.5133,1.687,11111222 
TCOON,ioos:station:TCOON:518:1,2019-10-04T18:42:00Z,29.5150,-94.5133,1.634,11111222 
TCOON,ioos:station:TCOON:518:1,2019-10-04T19:36:00Z,29.5150,-94.5133,1.571,11111222 
TCOON,ioos:station:TCOON:518:1,2019-10-04T20:36:00Z,29.5150,-94.5133,1.534,11111222 
TCOON,ioos:station:TCOON:518:1,2019-10-04T21:30:00Z,29.5150,-94.5133,1.506,11111222 
TCOON,ioos:station:TCOON:518:1,2019-10-04T22:30:00Z,29.5150,-94.5133,1.464,11111222 
TCOON,ioos:station:TCOON:518:1,2019-10-04T23:24:00Z,29.5150,-94.5133,1.449,11111222 
TCOON,ioos:station:TCOON:518:1,2019-10-05T00:24:00Z,29.5150,-94.5133,1.45,11111222 
TCOON,ioos:station:TCOON:518:1,2019-10-05T01:24:00Z,29.5150,-94.5133,1.492,11111222 
TCOON,ioos:station:TCOON:518:1,2019-10-05T02:24:00Z,29.5150,-94.5133,1.58,11111222 
TCOON,ioos:station:TCOON:518:1,2019-10-05T03:24:00Z,29.5150,-94.5133,1.658,11111222 
TCOON,ioos:station:TCOON:518:1,2019-10-05T04:24:00Z,29.5150,-94.5133,1.713,11111222 
TCOON,ioos:station:TCOON:518:1,2019-10-05T05:24:00Z,29.5150,-94.5133,1.751,11111222 
TCOON,ioos:station:TCOON:518:1,2019-10-05T06:24:00Z,29.5150,-94.5133,1.79,11111222 
TCOON,ioos:station:TCOON:518:1,2019-10-05T07:24:00Z,29.5150,-94.5133,1.814,11111222 
TCOON,ioos:station:TCOON:518:1,2019-10-05T08:24:00Z,29.5150,-94.5133,1.833,11111222 
TCOON,ioos:station:TCOON:518:1,2019-10-05T09:24:00Z,29.5150,-94.5133,1.859,11111222 
TCOON,ioos:station:TCOON:518:1,2019-10-05T10:24:00Z,29.5150,-94.5133,1.883,11111222 
TCOON,ioos:station:TCOON:518:1,2019-10-05T11:24:00Z,29.5150,-94.5133,1.884,11111222 
TCOON,ioos:station:TCOON:518:1,2019-10-05T12:24:00Z,29.5150,-94.5133,1.881,11111222 
TCOON,ioos:station:TCOON:518:1,2019-10-05T13:24:00Z,29.5150,-94.5133,1.859,11111222 
TCOON,ioos:station:TCOON:518:1,2019-10-05T14:24:00Z,29.5150,-94.5133,1.818,11111222 
TCOON,ioos:station:TCOON:518:1,2019-10-05T15:24:00Z,29.5150,-94.5133,1.767,11111222 
TCOON,ioos:station:TCOON:518:1,2019-10-05T16:24:00Z,29.5150,-94.5133,1.729,11111222 
TCOON,ioos:station:TCOON:518:1,2019-10-05T17:24:00Z,29.5150,-94.5133,1.705,11111222 
TCOON,ioos:station:TCOON:518:1,2019-10-05T18:24:00Z,29.5150,-94.5133,1.68,11111222 
TCOON,ioos:station:TCOON:518:1,2019-10-05T19:24:00Z,29.5150,-94.5133,1.62,11111222 
TCOON,ioos:station:TCOON:518:1,2019-10-05T20:24:00Z,29.5150,-94.5133,1.557,11111222 
TCOON,ioos:station:TCOON:518:1,2019-10-05T21:24:00Z,29.5150,-94.5133,1.5,11111222 
TCOON,ioos:station:TCOON:518:1,2019-10-05T22:24:00Z,29.5150,-94.5133,1.46,11111222 
TCOON,ioos:station:TCOON:518:1,2019-10-05T23:24:00Z,29.5150,-94.5133,1.416,11111222 
TCOON,ioos:station:TCOON:518:1,2019-10-06T00:24:00Z,29.5150,-94.5133,1.383,11111222 
TCOON,ioos:station:TCOON:518:1,2019-10-06T01:24:00Z,29.5150,-94.5133,1.376,11111222 
TCOON,ioos:station:TCOON:518:1,2019-10-06T02:24:00Z,29.5150,-94.5133,1.419,11111222 
TCOON,ioos:station:TCOON:518:1,2019-10-06T03:24:00Z,29.5150,-94.5133,1.512,11111222 
TCOON,ioos:station:TCOON:518:1,2019-10-06T04:24:00Z,29.5150,-94.5133,1.6,11111222 
TCOON,ioos:station:TCOON:518:1,2019-10-06T05:24:00Z,29.5150,-94.5133,1.67,11111222 
TCOON,ioos:station:TCOON:518:1,2019-10-06T06:24:00Z,29.5150,-94.5133,1.697,11111222 
TCOON,ioos:station:TCOON:518:1,2019-10-06T07:24:00Z,29.5150,-94.5133,1.796,11111222 
TCOON,ioos:station:TCOON:518:1,2019-10-06T08:24:00Z,29.5150,-94.5133,1.845,11111222 
TCOON,ioos:station:TCOON:518:1,2019-10-06T09:24:00Z,29.5150,-94.5133,1.875,11111222 
TCOON,ioos:station:TCOON:518:1,2019-10-06T10:24:00Z,29.5150,-94.5133,1.886,11111222 
TCOON,ioos:station:TCOON:518:1,2019-10-06T11:24:00Z,29.5150,-94.5133,1.9,11111222 
TCOON,ioos:station:TCOON:518:1,2019-10-06T12:24:00Z,29.5150,-94.5133,1.925,11111222 
TCOON,ioos:station:TCOON:518:1,2019-10-06T13:24:00Z,29.5150,-94.5133,1.919,11111222 
TCOON,ioos:station:TCOON:518:1,2019-10-06T14:24:00Z,29.5150,-94.5133,1.892,11111222 
TCOON,ioos:station:TCOON:518:1,2019-10-06T15:24:00Z,29.5150,-94.5133,1.852,11111222 
TCOON,ioos:station:TCOON:518:1,2019-10-06T16:24:00Z,29.5150,-94.5133,1.803,11111222 
TCOON,ioos:station:TCOON:518:1,2019-10-06T17:24:00Z,29.5150,-94.5133,1.791,11111222 
TCOON,ioos:station:TCOON:518:1,2019-10-06T18:24:00Z,29.5150,-94.5133,1.759,11111222 
TCOON,ioos:station:TCOON:518:1,2019-10-06T19:30:00Z,29.5150,-94.5133,1.718,11111222 
TCOON,ioos:station:TCOON:518:1,2019-10-06T20:24:00Z,29.5150,-94.5133,1.686,11111222 
TCOON,ioos:station:TCOON:518:1,2019-10-06T21:24:00Z,29.5150,-94.5133,1.635,11111222 
TCOON,ioos:station:TCOON:518:1,2019-10-06T22:24:00Z,29.5150,-94.5133,1.571,11111222 
TCOON,ioos:station:TCOON:518:1,2019-10-06T23:24:00Z,29.5150,-94.5133,1.523,11111222 
TCOON,ioos:station:TCOON:518:1,2019-10-07T00:24:00Z,29.5150,-94.5133,1.488,11111222 
TCOON,ioos:station:TCOON:518:1,2019-10-07T01:24:00Z,29.5150,-94.5133,1.487,11111222 
TCOON,ioos:station:TCOON:518:1,2019-10-07T02:24:00Z,29.5150,-94.5133,1.511,11111222 
TCOON,ioos:station:TCOON:518:1,2019-10-07T03:24:00Z,29.5150,-94.5133,1.562,11111222 
TCOON,ioos:station:TCOON:518:1,2019-10-07T04:24:00Z,29.5150,-94.5133,1.614,11111222 
TCOON,ioos:station:TCOON:518:1,2019-10-07T05:24:00Z,29.5150,-94.5133,1.714,11111222 
TCOON,ioos:station:TCOON:518:1,2019-10-07T06:24:00Z,29.5150,-94.5133,1.785,11111222 
TCOON,ioos:station:TCOON:518:1,2019-10-07T07:24:00Z,29.5150,-94.5133,1.813,11111222 
TCOON,ioos:station:TCOON:518:1,2019-10-07T08:24:00Z,29.5150,-94.5133,1.881,11111222 
TCOON,ioos:station:TCOON:518:1,2019-10-07T09:24:00Z,29.5150,-94.5133,1.932,11111222 
TCOON,ioos:station:TCOON:518:1,2019-10-07T10:24:00Z,29.5150,-94.5133,1.974,11111222 
TCOON,ioos:station:TCOON:518:1,2019-10-07T11:24:00Z,29.5150,-94.5133,1.988,11111222 
TCOON,ioos:station:TCOON:518:1,2019-10-07T12:24:00Z,29.5150,-94.5133,1.992,11111222 
TCOON,ioos:station:TCOON:518:1,2019-10-07T14:48:00Z,29.5150,-94.5133,1.857,11111222 
TCOON,ioos:station:TCOON:518:1,2019-10-07T15:30:00Z,29.5150,-94.5133,1.834,11111222 
TCOON,ioos:station:TCOON:518:1,2019-10-07T16:30:00Z,29.5150,-94.5133,1.832,11111222 
TCOON,ioos:station:TCOON:518:1,2019-10-07T17:30:00Z,29.5150,-94.5133,1.783,11111222 
TCOON,ioos:station:TCOON:518:1,2019-10-07T18:30:00Z,29.5150,-94.5133,1.756,11111222 
TCOON,ioos:station:TCOON:518:1,2019-10-07T19:30:00Z,29.5150,-94.5133,1.727,11111222 
TCOON,ioos:station:TCOON:518:1,2019-10-07T20:30:00Z,29.5150,-94.5133,1.726,11111222 
TCOON,ioos:station:TCOON:518:1,2019-10-07T21:24:00Z,29.5150,-94.5133,1.606,11111222 
TCOON,ioos:station:TCOON:518:1,2019-10-07T22:24:00Z,29.5150,-94.5133,1.549,11111222 
TCOON,ioos:station:TCOON:518:1,2019-10-07T23:24:00Z,29.5150,-94.5133,1.514,11111222 
TCOON,ioos:station:TCOON:518:1,2019-10-08T00:24:00Z,29.5150,-94.5133,1.511,11111222 
TCOON,ioos:station:TCOON:518:1,2019-10-08T01:24:00Z,29.5150,-94.5133,1.486,11111222 
TCOON,ioos:station:TCOON:518:1,2019-10-08T02:24:00Z,29.5150,-94.5133,1.475,11111222 
TCOON,ioos:station:TCOON:518:1,2019-10-08T03:24:00Z,29.5150,-94.5133,1.474,11111222 
TCOON,ioos:station:TCOON:518:1,2019-10-08T04:24:00Z,29.5150,-94.5133,1.416,11111222 
TCOON,ioos:station:TCOON:518:1,2019-10-08T05:24:00Z,29.5150,-94.5133,1.406,11111222 
TCOON,ioos:station:TCOON:518:1,2019-10-08T06:24:00Z,29.5150,-94.5133,1.557,11111222 
TCOON,ioos:station:TCOON:518:1,2019-10-08T07:24:00Z,29.5150,-94.5133,1.573,11111222 
TCOON,ioos:station:TCOON:518:1,2019-10-08T08:24:00Z,29.5150,-94.5133,1.647,11111222 
TCOON,ioos:station:TCOON:518:1,2019-10-08T09:24:00Z,29.5150,-94.5133,1.735,11111222 
TCOON,ioos:station:TCOON:518:1,2019-10-08T10:24:00Z,29.5150,-94.5133,1.759,11111222 
TCOON,ioos:station:TCOON:518:1,2019-10-08T11:24:00Z,29.5150,-94.5133,1.793,11111222 
TCOON,ioos:station:TCOON:518:1,2019-10-08T12:24:00Z,29.5150,-94.5133,1.804,11111222 
TCOON,ioos:station:TCOON:518:1,2019-10-08T13:24:00Z,29.5150,-94.5133,1.835,11111222 
TCOON,ioos:station:TCOON:518:1,2019-10-08T14:36:00Z,29.5150,-94.5133,1.851,11111222 
TCOON,ioos:station:TCOON:518:1,2019-10-08T15:36:00Z,29.5150,-94.5133,1.845,11111222 
TCOON,ioos:station:TCOON:518:1,2019-10-08T16:30:00Z,29.5150,-94.5133,1.831,11111222 
TCOON,ioos:station:TCOON:518:1,2019-10-08T17:30:00Z,29.5150,-94.5133,1.852,11111222 
TCOON,ioos:station:TCOON:518:1,2019-10-08T18:48:00Z,29.5150,-94.5133,1.881,11111222 
TCOON,ioos:station:TCOON:518:1,2019-10-08T19:48:00Z,29.5150,-94.5133,1.88,11111222 
TCOON,ioos:station:TCOON:518:1,2019-10-08T20:36:00Z,29.5150,-94.5133,1.87,11111222 
TCOON,ioos:station:TCOON:518:1,2019-10-08T21:30:00Z,29.5150,-94.5133,1.825,11111222 
TCOON,ioos:station:TCOON:518:1,2019-10-08T22:30:00Z,29.5150,-94.5133,1.784,11111222 
TCOON,ioos:station:TCOON:518:1,2019-10-08T23:24:00Z,29.5150,-94.5133,1.715,11111222 
TCOON,ioos:station:TCOON:518:1,2019-10-09T00:24:00Z,29.5150,-94.5133,1.632,11111222 
TCOON,ioos:station:TCOON:518:1,2019-10-09T01:24:00Z,29.5150,-94.5133,1.596,11111222 
TCOON,ioos:station:TCOON:518:1,2019-10-09T02:36:00Z,29.5150,-94.5133,1.568,11111222 
TCOON,ioos:station:TCOON:518:1,2019-10-09T03:24:00Z,29.5150,-94.5133,1.545,11111222 
TCOON,ioos:station:TCOON:518:1,2019-10-09T04:24:00Z,29.5150,-94.5133,1.532,11111222 
TCOON,ioos:station:TCOON:518:1,2019-10-09T05:24:00Z,29.5150,-94.5133,1.501,11111222 
TCOON,ioos:station:TCOON:518:1,2019-10-09T06:24:00Z,29.5150,-94.5133,1.611,11111222 
TCOON,ioos:station:TCOON:518:1,2019-10-09T07:24:00Z,29.5150,-94.5133,1.692,11111222 
TCOON,ioos:station:TCOON:518:1,2019-10-09T08:24:00Z,29.5150,-94.5133,1.749,11111222 
TCOON,ioos:station:TCOON:518:1,2019-10-09T09:24:00Z,29.5150,-94.5133,1.822,11111222 
TCOON,ioos:station:TCOON:518:1,2019-10-09T10:24:00Z,29.5150,-94.5133,1.873,11111222 
TCOON,ioos:station:TCOON:518:1,2019-10-09T11:24:00Z,29.5150,-94.5133,1.895,11111222 
TCOON,ioos:station:TCOON:518:1,2019-10-09T12:30:00Z,29.5150,-94.5133,1.92,11111222 
TCOON,ioos:station:TCOON:518:1,2019-10-09T13:30:00Z,29.5150,-94.5133,1.92,11111222 
TCOON,ioos:station:TCOON:518:1,2019-10-09T14:30:00Z,29.5150,-94.5133,1.896,11111222 
TCOON,ioos:station:TCOON:518:1,2019-10-09T15:30:00Z,29.5150,-94.5133,1.865,11111222 
TCOON,ioos:station:TCOON:518:1,2019-10-09T16:30:00Z,29.5150,-94.5133,1.823,11111222 
TCOON,ioos:station:TCOON:518:1,2019-10-09T17:30:00Z,29.5150,-94.5133,1.793,11111222 
TCOON,ioos:station:TCOON:518:1,2019-10-09T18:30:00Z,29.5150,-94.5133,1.781,11111222 
TCOON,ioos:station:TCOON:518:1,2019-10-09T19:30:00Z,29.5150,-94.5133,1.757,11111222 
TCOON,ioos:station:TCOON:518:1,2019-10-09T20:30:00Z,29.5150,-94.5133,1.764,11111222 
TCOON,ioos:station:TCOON:518:1,2019-10-09T21:30:00Z,29.5150,-94.5133,1.751,11111222 
TCOON,ioos:station:TCOON:518:1,2019-10-09T22:24:00Z,29.5150,-94.5133,1.743,11111222 
TCOON,ioos:station:TCOON:518:1,2019-10-10T01:36:00Z,29.5150,-94.5133,1.555,11111222 
TCOON,ioos:station:TCOON:518:1,2019-10-10T02:24:00Z,29.5150,-94.5133,1.551,11111222 
TCOON,ioos:station:TCOON:518:1,2019-10-10T03:24:00Z,29.5150,-94.5133,1.534,11111222 
TCOON,ioos:station:TCOON:518:1,2019-10-10T04:24:00Z,29.5150,-94.5133,1.509,11111222 
TCOON,ioos:station:TCOON:518:1,2019-10-10T05:36:00Z,29.5150,-94.5133,1.465,11111222 
TCOON,ioos:station:TCOON:518:1,2019-10-10T06:24:00Z,29.5150,-94.5133,1.61,11111222 
TCOON,ioos:station:TCOON:518:1,2019-10-10T07:24:00Z,29.5150,-94.5133,1.682,11111222 
TCOON,ioos:station:TCOON:518:1,2019-10-10T08:24:00Z,29.5150,-94.5133,1.748,11111222 
TCOON,ioos:station:TCOON:518:1,2019-10-10T09:24:00Z,29.5150,-94.5133,1.802,11111222 
TCOON,ioos:station:TCOON:518:1,2019-10-10T10:24:00Z,29.5150,-94.5133,1.84,11111222 
TCOON,ioos:station:TCOON:518:1,2019-10-10T11:24:00Z,29.5150,-94.5133,1.882,11111222 
TCOON,ioos:station:TCOON:518:1,2019-10-10T12:24:00Z,29.5150,-94.5133,1.887,11111222 
TCOON,ioos:station:TCOON:518:1,2019-10-10T13:30:00Z,29.5150,-94.5133,1.9,11111222 
TCOON,ioos:station:TCOON:518:1,2019-10-10T14:30:00Z,29.5150,-94.5133,1.903,11111222 
TCOON,ioos:station:TCOON:518:1,2019-10-10T15:24:00Z,29.5150,-94.5133,1.886,11111222 
TCOON,ioos:station:TCOON:518:1,2019-10-10T16:24:00Z,29.5150,-94.5133,1.841,11111222 
TCOON,ioos:station:TCOON:518:1,2019-10-10T17:30:00Z,29.5150,-94.5133,1.794,11111222 
TCOON,ioos:station:TCOON:518:1,2019-10-10T18:30:00Z,29.5150,-94.5133,1.75,11111222 
TCOON,ioos:station:TCOON:518:1,2019-10-10T19:30:00Z,29.5150,-94.5133,1.766,11111222 
TCOON,ioos:station:TCOON:518:1,2019-10-10T20:30:00Z,29.5150,-94.5133,1.772,11111222 
TCOON,ioos:station:TCOON:518:1,2019-10-10T21:30:00Z,29.5150,-94.5133,1.767,11111222 
TCOON,ioos:station:TCOON:518:1,2019-10-10T22:30:00Z,29.5150,-94.5133,1.764,11111222 
TCOON,ioos:station:TCOON:518:1,2019-10-10T23:24:00Z,29.5150,-94.5133,1.765,11111222 
TCOON,ioos:station:TCOON:518:1,2019-10-11T00:24:00Z,29.5150,-94.5133,1.722,11111222 
TCOON,ioos:station:TCOON:518:1,2019-10-11T01:24:00Z,29.5150,-94.5133,1.687,11111222 
TCOON,ioos:station:TCOON:518:1,2019-10-11T02:24:00Z,29.5150,-94.5133,1.642,11111222 
TCOON,ioos:station:TCOON:518:1,2019-10-11T03:24:00Z,29.5150,-94.5133,1.621,11111222 
TCOON,ioos:station:TCOON:518:1,2019-10-11T04:30:00Z,29.5150,-94.5133,1.591,11111222 
TCOON,ioos:station:TCOON:518:1,2019-10-11T05:24:00Z,29.5150,-94.5133,1.59,11111222 
TCOON,ioos:station:TCOON:518:1,2019-10-11T06:24:00Z,29.5150,-94.5133,1.617,11111222 
TCOON,ioos:station:TCOON:518:1,2019-10-11T07:24:00Z,29.5150,-94.5133,1.697,11111222 
TCOON,ioos:station:TCOON:518:1,2019-10-11T08:24:00Z,29.5150,-94.5133,1.758,11111222 
TCOON,ioos:station:TCOON:518:1,2019-10-11T09:24:00Z,29.5150,-94.5133,1.818,11111222 
TCOON,ioos:station:TCOON:518:1,2019-10-11T10:30:00Z,29.5150,-94.5133,1.879,11111222 
TCOON,ioos:station:TCOON:518:1,2019-10-11T11:30:00Z,29.5150,-94.5133,1.916,11111222 
TCOON,ioos:station:TCOON:518:1,2019-10-11T12:30:00Z,29.5150,-94.5133,1.93,11111222 
TCOON,ioos:station:TCOON:518:1,2019-10-11T13:30:00Z,29.5150,-94.5133,1.948,11111222 
TCOON,ioos:station:TCOON:518:1,2019-10-11T14:48:00Z,29.5150,-94.5133,1.914,11111222 
TCOON,ioos:station:TCOON:518:1,2019-10-11T15:48:00Z,29.5150,-94.5133,1.857,11111222 
TCOON,ioos:station:TCOON:518:1,2019-10-11T16:48:00Z,29.5150,-94.5133,1.885,11111222 
TCOON,ioos:station:TCOON:518:1,2019-10-11T17:48:00Z,29.5150,-94.5133,1.779,11111222 
TCOON,ioos:station:TCOON:518:1,2019-10-11T18:30:00Z,29.5150,-94.5133,1.852,11111222 
TCOON,ioos:station:TCOON:518:1,2019-10-11T19:30:00Z,29.5150,-94.5133,1.88,11111222 
TCOON,ioos:station:TCOON:518:1,2019-10-11T20:30:00Z,29.5150,-94.5133,1.833,11111222 
TCOON,ioos:station:TCOON:518:1,2019-10-11T21:30:00Z,29.5150,-94.5133,1.794,11111222 
TCOON,ioos:station:TCOON:518:1,2019-10-11T22:30:00Z,29.5150,-94.5133,1.709,11111222 
TCOON,ioos:station:TCOON:518:1,2019-10-11T23:24:00Z,29.5150,-94.5133,1.614,11111222 
TCOON,ioos:station:TCOON:518:1,2019-10-12T00:24:00Z,29.5150,-94.5133,1.54,11111222 
TCOON,ioos:station:TCOON:518:1,2019-10-12T01:24:00Z,29.5150,-94.5133,1.518,11111222 
TCOON,ioos:station:TCOON:518:1,2019-10-12T02:24:00Z,29.5150,-94.5133,1.467,11111222 
TCOON,ioos:station:TCOON:518:1,2019-10-12T03:24:00Z,29.5150,-94.5133,1.386,11111222 
TCOON,ioos:station:TCOON:518:1,2019-10-12T04:24:00Z,29.5150,-94.5133,1.287,11111222 
TCOON,ioos:station:TCOON:518:1,2019-10-12T05:36:00Z,29.5150,-94.5133,1.226,11111222 
TCOON,ioos:station:TCOON:518:1,2019-10-12T06:24:00Z,29.5150,-94.5133,1.206,11111222 
TCOON,ioos:station:TCOON:518:1,2019-10-12T07:24:00Z,29.5150,-94.5133,1.172,11111222 
TCOON,ioos:station:TCOON:518:1,2019-10-12T08:24:00Z,29.5150,-94.5133,1.191,11111222 
TCOON,ioos:station:TCOON:518:1,2019-10-12T09:24:00Z,29.5150,-94.5133,1.34,11111222 
TCOON,ioos:station:TCOON:518:1,2019-10-12T10:24:00Z,29.5150,-94.5133,1.382,11111222 
TCOON,ioos:station:TCOON:518:1,2019-10-12T11:24:00Z,29.5150,-94.5133,1.442,11111222 
TCOON,ioos:station:TCOON:518:1,2019-10-12T12:24:00Z,29.5150,-94.5133,1.49,11111222 
TCOON,ioos:station:TCOON:518:1,2019-10-12T13:30:00Z,29.5150,-94.5133,1.495,11111222 
TCOON,ioos:station:TCOON:518:1,2019-10-12T14:30:00Z,29.5150,-94.5133,1.488,11111222 
TCOON,ioos:station:TCOON:518:1,2019-10-12T15:30:00Z,29.5150,-94.5133,1.464,11111222 
TCOON,ioos:station:TCOON:518:1,2019-10-12T16:30:00Z,29.5150,-94.5133,1.479,11111222 
TCOON,ioos:station:TCOON:518:1,2019-10-12T17:30:00Z,29.5150,-94.5133,1.516,11111222 
TCOON,ioos:station:TCOON:518:1,2019-10-12T18:30:00Z,29.5150,-94.5133,1.563,11111222 
TCOON,ioos:station:TCOON:518:1,2019-10-12T19:30:00Z,29.5150,-94.5133,1.626,11111222 